Location: Rock Island IL
(41.5000°N, 90.5500°W)
Time: 00:23:12
(UTC-05:00)

Daily predictions for brighter satellites

Satellite Brightness Start Highest point End
(mag) Time Altitude Azimuth Time Altitude Azimuth Time Altitude Azimuth
CZ-2C R/B 4.2 00:01:43 10° NNE 00:04:26 30° NNE 00:04:26 30° NNE
Cosmos 2219 Rocket 4.1 00:06:05 22° WNW 00:07:41 24° NW 00:12:15 10° N
SL-16 R/B 3.6 00:21:36 34° NNE 00:21:36 34° NNE 00:24:42 10° NNE
Cosmos 1943 Rocket 4.3 00:29:31 10° N 00:33:00 17° NE 00:33:00 17° NE
Cosmos 2333 Rocket 4.4 00:36:58 16° WNW 00:38:35 18° NW 00:42:25 10° N
Cosmos 2237 Rocket 4.3 00:54:12 19° WNW 00:54:46 19° NW 00:58:44 10° N
COSMOS 2455 4.4 00:50:17 10° NW 00:53:12 29° NW 00:53:12 29° NW
Cosmos 2369 Rocket 3.7 00:51:36 10° N 00:55:12 32° NNE 00:55:12 32° NNE
CENTAUR R/B 4.2 01:12:50 10° NW 01:17:39 32° WNW 01:17:39 32° WNW
USA 215 3.7 01:33:40 56° NNW 01:33:40 56° NNW 01:38:58 10° NW
Mayak 1.8 01:58:10 10° NNW 01:58:19 11° NNW 01:58:19 11° NNW
Resurs 1-4 Rocket 4.4 02:02:12 10° NE 02:04:34 15° E 02:04:34 15° E
Cosmos 1943 Rocket 3.7 02:11:57 10° NNW 02:14:29 28° NNW 02:14:29 28° NNW
CZ-2D R/B 3.9 02:21:59 10° NE 02:25:45 23° E 02:25:45 23° E
Cosmos 2369 Rocket 4.4 02:36:01 10° NW 02:36:58 14° NW 02:36:58 14° NW
CZ-3A R/B 3.3 02:32:47 10° NW 02:42:52 85° NE 02:43:26 75° ESE
Cosmos 1821 Rocket 4.0 02:51:44 73° N 02:51:44 73° N 02:57:19 10° N
Cosmos 2123 Rocket 4.2 02:45:01 10° N 02:51:13 64° E 02:51:28 63° E
Lacrosse 5 4.1 02:47:48 10° NNW 02:51:52 23° NNE 02:55:55 10° ENE
Cosmos 1934 Rocket 3.9 03:00:37 79° NNE 03:00:37 79° NNE 03:06:19 10° N
Cosmos 2098 Rocket 4.0 03:03:39 56° N 03:03:39 56° N 03:07:21 10° N
SL-16 R/B 2.6 03:04:43 62° ESE 03:05:38 72° ENE 03:11:49 10° N
USA 229 DEB 3.7 03:05:08 10° NW 03:12:21 84° SW 03:14:06 56° SSE
USA 229 3.7 03:05:14 10° NW 03:12:27 84° WSW 03:14:20 54° SSE
Cosmos 1315 Rocket 4.5 03:10:46 10° N 03:13:44 32° NE 03:13:44 32° NE
Cosmos 2221 3.7 03:20:44 38° N 03:20:44 38° N 03:23:29 10° N
Cosmos 1605 Rocket 3.9 03:19:33 73° S 03:20:13 86° E 03:26:40 10° N
ADEOS Rocket 3.3 03:21:42 10° N 03:26:26 44° NW 03:26:26 44° NW
IRS-1C 4.2 03:23:50 10° N 03:28:50 66° NW 03:28:50 66° NW
Cosmos 1666 Rocket 4.0 03:26:53 10° N 03:31:02 59° ENE 03:31:02 59° ENE
NPP 4.2 03:27:00 10° N 03:31:42 45° NW 03:31:42 45° NW
Cosmos 1805 Rocket 4.4 03:28:18 10° N 03:31:26 45° NNW 03:31:26 45° NNW
UNKNOWN OBJECT B 3.9 03:32:05 10° NNE 03:35:51 41° E 03:35:51 41° E
BREEZE-M DEB (TANK) 3.2 03:38:34 46° N 03:38:49 47° N 03:44:40 10° E
NOSS 3-1 (C) 4.1 03:37:46 10° NW 03:45:24 84° NE 03:53:51 10° SE
Resurs 1-4 Rocket 2.0 03:40:13 10° N 03:45:26 67° WNW 03:45:39 67° W
ARIANE 5 R/B 2.4 03:41:16 10° N 03:46:31 79° WNW 03:46:57 73° SW
Cosmos 1153 Rocket 4.4 03:45:11 53° S 03:46:52 87° W 03:53:12 10° N
Cosmos 1833 Rocket 4.4 03:45:25 17° SSE 03:48:34 27° ESE 03:53:15 10° NE
CZ-2D R/B 3.8 03:47:57 10° NNE 03:51:53 55° E 03:52:00 55° ESE
SL-27 R/B 3.8 03:57:47 32° N 03:57:47 32° N 03:59:53 10° N
COSMOS 2406 3.7 03:56:22 41° WNW 03:57:03 43° WNW 04:02:28 10° NNE
MOS 1 Rocket 3.3 03:52:49 10° N 03:56:56 60° WNW 03:56:56 60° WNW
Cosmos 1447 Rocket 4.4 03:53:06 10° NNW 03:59:15 70° W 04:01:17 43° SSW
Cosmos 2100 Rocket 4.1 03:56:35 31° S 03:59:48 75° E 04:06:09 10° N
Sich 1 3.3 03:55:52 10° NNW 03:59:35 55° NW 03:59:35 55° NW
Meteor 2-17 Rocket 4.4 03:58:49 40° S 04:01:13 87° E 04:07:21 10° N
Cosmos 1802 Rocket 4.4 03:57:19 22° SSE 04:01:18 60° E 04:07:29 10° NNE
Cosmos 292 Rocket 4.1 04:01:42 49° WNW 04:01:47 49° WNW 04:06:28 10° N
Cosmos 1300 2.9 04:03:53 62° NNW 04:03:53 62° NNW 04:07:12 10° N
Okean O Rocket 4.2 04:01:27 10° NE 04:04:20 17° E 04:07:12 10° SE
CZ-2D R/B 2.5 04:01:22 10° N 04:06:26 45° WNW 04:07:04 43° W
Tiangong 2 2.7 04:08:15 29° ESE 04:08:15 29° ESE 04:10:14 10° E
Shenzhou-11 Module 3.2 04:14:00 39° E 04:14:00 39° E 04:16:10 10° E
Cosmos 773 Rocket 3.9 04:12:56 45° SSW 04:14:35 85° WNW 04:19:56 10° NNE
Cosmos 2278 4.0 04:09:37 10° NNW 04:15:16 69° ENE 04:20:54 10° SSE
IRS-1D 4.2 04:12:13 10° N 04:16:55 36° WNW 04:17:40 35° W
Cosmos 1455 3.8 04:16:37 15° SSE 04:19:07 32° E 04:22:29 10° NNE
Cosmos 1697 Rocket 4.0 04:14:26 10° N 04:19:49 42° ENE 04:25:09 10° SE
Meteor 2-2 Rocket 4.3 04:17:22 34° SSW 04:20:09 77° W 04:26:13 10° N
Cosmos 2173 Rocket 3.9 04:17:42 28° SSW 04:21:17 82° W 04:27:41 10° N
MOZ.5/SAFIR/RUBIN 5/SL-8 4.0 04:23:01 45° WSW 04:23:26 46° W 04:27:57 10° NNW
Cosmos 1470 Rocket 3.4 04:19:37 10° N 04:23:58 87° W 04:26:15 28° S
COSMOS 2487 2.9 04:28:16 37° SSE 04:29:24 57° ESE 04:32:53 10° NNE
ADEOS II 2.6 04:25:20 10° NNE 04:30:31 56° E 04:35:23 12° S
Cosmos 1515 Rocket 3.5 04:30:44 38° SSW 04:32:21 73° W 04:36:48 10° N
Cosmos 1633 Rocket 3.8 04:29:14 10° NNW 04:32:57 33° W 04:32:57 33° W
Lacrosse 5 1.8 04:30:21 10° NW 04:35:27 89° NE 04:40:32 10° SE
Cosmos 1726 3.9 04:36:31 19° WNW 04:36:31 19° WNW 04:38:38 10° NNW
ADEOS 4.5 04:34:07 10° N 04:38:41 31° WNW 04:40:13 27° W
Cosmos 2082 Rocket 2.3 04:35:51 21° SSW 04:39:38 75° ESE 04:45:17 10° NNE
Cosmos 1459 Rocket 4.0 04:37:03 26° SSW 04:40:27 57° W 04:46:25 10° N
Cosmos 2228 Rocket 3.4 04:39:48 35° SW 04:41:11 47° WNW 04:45:29 10° N
Cosmos 2084 4.3 04:40:10 21° S 04:42:28 41° ESE 04:46:09 10° NE
OAO 2 Rocket 4.4 04:46:15 22° SSW 04:48:07 29° SSE 04:52:21 10° ESE
SL-16 R/B 3.9 04:49:49 18° W 04:49:49 18° W 04:53:51 10° NW
CZ-4B R/B 3.9 04:53:32 10° NNE 04:58:54 54° E 05:04:07 10° S
Cosmos 482 Debris 4.0 05:00:57 33° WSW 05:01:24 36° SW 05:04:54 10° SSE
ATLAS 2AS CENTAUR R/B 4.0 04:54:06 10° NNW 05:01:53 49° NE 05:09:07 10° ESE
Cosmos 1892 3.0 04:59:02 10° NNW 05:02:43 46° W 05:06:08 12° SSW
Cosmos 1869 4.1 04:59:05 10° S 05:02:56 52° E 05:06:49 10° NNE
Cosmos 1656 3.7 04:57:33 10° NNW 05:03:12 63° WSW 05:08:47 10° S
PSLV R/B 3.6 04:59:03 10° NNE 05:03:24 82° E 05:07:41 10° S
Meteor 2-3 Rocket 3.8 04:58:48 10° NNW 05:04:21 58° W 05:09:55 10° S
Landsat 4 4.5 05:01:10 10° SSE 05:04:49 55° ENE 05:08:31 10° N
PSLV R/B 3.9 05:01:16 10° N 05:05:25 75° WNW 05:09:16 12° SSW
Cosmos 1408 3.7 05:02:43 10° N 05:06:14 45° E 05:09:41 10° SSE
NOSS 3-1 (A) 4.3 05:00:57 10° NW 05:08:17 46° WSW 05:16:13 10° S
Cosmos 1371 Rocket 4.4 05:04:58 10° NNW 05:10:12 67° ENE 05:15:27 10° SSE
Cosmos 1825 3.2 05:06:32 10° N 05:10:15 49° E 05:13:57 10° SSE
Cosmos 2369 4.0 05:05:22 10° NW 05:10:38 41° WSW 05:15:53 10° S
Cosmos 2233 Rocket 4.0 05:11:41 10° S 05:17:48 87° E 05:23:59 10° N
PAYLOAD B 4.3 05:14:16 10° NNE 05:19:53 87° WNW 05:25:28 10° SSW
Cosmos 1151 Rocket 4.1 05:18:15 16° WSW 05:20:41 26° WNW 05:24:19 10° NNW
Hubble Space Telescope 2.9 05:19:53 10° SSW 05:21:13 12° S 05:22:46 10° SSE
Cosmos 1624 Rocket 4.3 05:20:35 10° NNW 05:25:51 76° ENE 05:31:04 10° SSE
Cosmos 1900 4.4 05:20:50 10° SSW 05:25:53 87° WNW 05:31:03 10° NNE
SL-16 R/B 4.3 05:23:04 10° N 05:28:07 32° ENE 05:33:09 10° ESE
Meteor 2-12 Rocket 4.4 05:23:45 10° SSW 05:29:47 77° W 05:35:53 10° N
USA 234 4.5 05:24:49 10° ENE 05:30:49 37° SE 05:36:47 10° SSW
Cosmos 1833 Rocket 3.2 05:27:09 11° SW 05:32:14 43° WNW 05:37:38 10° NNE
Cosmos 1680 Rocket 4.2 05:31:26 10° SW 05:36:16 37° WNW 05:41:12 10° N
Cosmos 1707 Rocket 3.5 05:32:22 10° SSW 05:36:46 70° W 05:41:09 10° N
CZ-4B R/B 4.0 05:33:37 10° NNE 05:37:24 69° ESE 05:41:02 10° S
ATLAS 5 CENTAUR R/B 3.9 05:34:27 10° SSE 05:38:07 24° ESE 05:42:00 10° ENE
Cosmos 1725 Rocket 4.5 05:33:40 10° SW 05:39:25 40° WNW 05:45:12 10° N
CZ-4B R/B 3.8 05:35:19 10° N 05:39:28 38° WNW 05:43:38 10° SW
Okean O Rocket 2.0 05:36:43 10° N 05:40:55 44° WNW 05:45:04 10° SW
Okean-O 3.8 05:38:40 10° NNE 05:42:58 47° E 05:47:13 10° S
Tiangong 2 1.3 05:40:48 10° W 05:44:01 73° N 05:47:15 10° E
CZ-2C R/B 3.6 05:40:59 10° S 05:45:24 73° WSW 05:49:54 10° NNW
IRS-1C Rocket 4.2 05:41:19 10° N 05:46:31 61° WNW 05:51:41 10° SSW
NOSS 2-1 (E) 4.2 05:44:34 10° SSW 05:48:08 47° ESE 05:52:08 10° NE
Cosmos 1733 Rocket 4.0 05:44:33 10° N 05:48:56 54° E 05:53:17 10° SSE
Cosmos 1980 Rocket 2.2 05:43:51 10° NNW 05:49:24 64° WSW 05:54:57 10° S
Shenzhou-11 Module 2.3 05:46:28 10° W 05:49:33 66° N 05:52:37 10° E
